HMU-SAT2

Last updated on Wed Aug 19 2026 00:02:05 GMT+0000 (Coordinated Universal Time)

1 67688U 98067YE 26230.51243661 .00104560 00000+0 77359-3 0 9995 2 67688 51.6260 335.9671 0006385 22.1181 338.0091 15.72098465 29998
UTC large
Height (km)
Speed (km/s)
/
Latitude / Longitude
Inclination (degrees)
Orbital Period (minutes)
Azimuth
Elevation
Range (km)
Doppler Factor

Next 0 passes for location: London (51.5072 / 0.1276)

No passes found over London.
HMU-SAT2